TimePST,TemperatureF,Dew PointF,Humidity,Sea Level PressureIn,VisibilityMPH,Wind Direction,Wind SpeedMPH,Gust SpeedMPH,PrecipitationIn,Events,Conditions,WindDirDegrees,DateUTC
12:11 AM,39.9,39.0,97,30.18,2.5,WNW,8.1,-,0.01,Rain,Light Rain,300,2013-11-07 08:11:00
12:22 AM,39.9,39.0,97,30.17,2.0,WNW,9.2,-,0.02,Rain,Light Rain,290,2013-11-07 08:22:00
12:43 AM,39.9,39.0,97,30.15,2.5,Calm,Calm,-,0.02,Rain,Light Rain,0,2013-11-07 08:43:00
12:53 AM,39.9,39.0,97,30.15,3.0,Calm,Calm,-,0.03,Rain,Light Rain,0,2013-11-07 08:53:00
1:06 AM,39.9,39.0,97,30.14,3.0,NW,3.5,-,0.00,Rain,Light Rain,320,2013-11-07 09:06:00
1:26 AM,39.9,39.0,97,30.13,2.0,NW,5.8,-,0.00,,Overcast,310,2013-11-07 09:26:00
1:31 AM,39.9,39.0,97,30.13,1.2,NW,5.8,-,0.00,,Overcast,310,2013-11-07 09:31:00
1:53 AM,39.9,39.0,97,30.12,0.8,NW,5.8,-,0.00,,Overcast,320,2013-11-07 09:53:00
2:10 AM,39.9,39.0,97,30.11,1.0,NW,6.9,-,N/A,,Overcast,310,2013-11-07 10:10:00
2:31 AM,39.9,39.0,97,30.09,1.5,NW,4.6,-,0.00,Rain,Light Rain,320,2013-11-07 10:31:00
2:53 AM,39.9,39.0,97,30.08,1.8,WNW,3.5,-,0.00,,Overcast,290,2013-11-07 10:53:00
3:03 AM,39.9,39.0,97,30.07,2.0,NW,3.5,-,0.00,Rain,Light Rain,310,2013-11-07 11:03:00
3:18 AM,39.9,39.0,97,30.06,1.2,NW,5.8,-,0.00,Rain,Light Rain,310,2013-11-07 11:18:00
3:39 AM,39.9,39.0,97,30.06,1.5,West,6.9,-,0.00,Rain,Light Rain,280,2013-11-07 11:39:00
3:51 AM,39.2,39.2,100,30.05,1.2,WNW,6.9,-,0.00,,Overcast,290,2013-11-07 11:51:00
3:53 AM,39.0,39.0,100,30.05,1.2,WNW,5.8,-,0.00,,Overcast,290,2013-11-07 11:53:00
4:16 AM,39.0,39.0,100,30.03,0.8,NNW,3.5,-,0.00,Rain,Light Rain,330,2013-11-07 12:16:00
4:50 AM,39.2,39.2,100,30.02,0.2,WNW,5.8,-,0.00,Fog,Fog,290,2013-11-07 12:50:00
4:53 AM,39.0,39.0,100,30.02,0.2,WNW,8.1,-,0.00,Fog,Fog,300,2013-11-07 12:53:00
5:53 AM,39.0,37.9,96,30.00,0.2,WNW,12.7,-,N/A,Fog,Fog,300,2013-11-07 13:53:00
6:53 AM,39.0,37.9,96,29.98,0.2,WNW,9.2,-,N/A,Fog,Fog,300,2013-11-07 14:53:00
7:53 AM,37.9,37.9,100,29.97,0.2,NW,3.5,-,N/A,Fog,Fog,310,2013-11-07 15:53:00
8:53 AM,39.0,39.0,100,29.94,0.2,NW,3.5,-,N/A,Fog,Fog,320,2013-11-07 16:53:00
9:37 AM,39.0,39.0,100,29.90,0.8,ESE,3.5,-,N/A,,Overcast,110,2013-11-07 17:37:00
9:46 AM,39.0,39.0,100,29.89,1.0,ESE,5.8,-,N/A,,Overcast,120,2013-11-07 17:46:00
9:53 AM,39.9,39.0,97,29.89,1.0,ESE,3.5,-,N/A,,Overcast,120,2013-11-07 17:53:00
10:03 AM,39.9,39.0,97,29.88,1.8,ESE,4.6,-,N/A,,Overcast,120,2013-11-07 18:03:00
10:24 AM,39.9,39.0,97,29.86,1.2,SE,10.4,-,0.00,Rain,Light Rain,130,2013-11-07 18:24:00
10:31 AM,39.9,39.0,97,29.86,1.5,SE,9.2,-,0.01,Rain,Light Rain,130,2013-11-07 18:31:00
10:34 AM,39.9,39.0,97,29.86,1.2,SE,9.2,-,0.01,Rain,Light Rain,130,2013-11-07 18:34:00
10:42 AM,39.9,39.9,100,29.85,1.5,East,3.5,-,0.01,Rain,Light Rain,80,2013-11-07 18:42:00
10:50 AM,39.2,39.2,100,29.88,1.2,Calm,Calm,-,0.02,Rain,Light Rain,0,2013-11-07 18:50:00
10:53 AM,39.9,39.9,100,29.89,1.2,North,-9999.0,-,0.02,Rain,Light Rain,0,2013-11-07 18:53:00
11:05 AM,39.9,39.9,100,29.86,1.5,NNW,8.1,-,0.02,Rain,Light Rain,330,2013-11-07 19:05:00
11:15 AM,41.0,39.9,96,29.85,3.0,NNW,10.4,-,0.02,Rain,Light Rain,330,2013-11-07 19:15:00
11:27 AM,41.0,41.0,100,29.84,4.0,North,9.2,-,0.02,,Overcast,360,2013-11-07 19:27:00
11:53 AM,44.1,43.0,96,29.83,8.0,North,-9999.0,-,0.02,,Overcast,0,2013-11-07 19:53:00
12:08 PM,44.1,42.1,93,29.83,4.0,West,4.6,-,0.00,Rain,Light Rain,280,2013-11-07 20:08:00
12:42 PM,43.0,43.0,100,29.83,2.0,South,3.5,-,0.05,Rain,Light Rain,180,2013-11-07 20:42:00
12:53 PM,44.1,43.0,96,29.83,3.0,Variable,4.6,-,0.05,Rain,Light Rain,0,2013-11-07 20:53:00
1:05 PM,44.1,42.1,93,29.87,1.8,WNW,28.8,32.2,0.01,Rain,Rain,290,2013-11-07 21:05:00
1:08 PM,42.1,39.9,92,29.86,1.0,WNW,24.2,33.4,0.02,Rain,Heavy Rain,300,2013-11-07 21:08:00
1:16 PM,41.0,39.9,96,29.87,0.8,WNW,23.0,31.1,0.05,Rain,Rain,290,2013-11-07 21:16:00
1:24 PM,41.0,39.9,96,29.87,0.8,West,19.6,-,0.06,Rain,Rain,280,2013-11-07 21:24:00
1:31 PM,41.0,39.9,96,29.87,1.8,West,15.0,-,0.08,Rain,Rain,280,2013-11-07 21:31:00
1:34 PM,41.0,39.9,96,29.87,3.0,West,15.0,-,0.08,Rain,Light Rain,280,2013-11-07 21:34:00
1:53 PM,42.1,41.0,96,29.88,3.0,WSW,13.8,-,0.10,Rain,Light Rain,250,2013-11-07 21:53:00
2:00 PM,42.1,41.0,96,29.88,4.0,WSW,13.8,-,0.01,Rain,Light Rain,240,2013-11-07 22:00:00
2:53 PM,45.0,43.0,93,29.89,10.0,SW,6.9,-,0.03,,Overcast,220,2013-11-07 22:53:00
3:53 PM,46.9,42.1,83,29.89,10.0,SSE,5.8,-,N/A,,Clear,150,2013-11-07 23:53:00
4:53 PM,46.9,39.0,74,29.90,10.0,South,9.2,-,N/A,,Clear,180,2013-11-08 00:53:00
5:53 PM,46.9,37.0,68,29.93,10.0,SW,12.7,-,N/A,,Mostly Cloudy,220,2013-11-08 01:53:00
6:53 PM,46.9,34.0,61,29.93,10.0,SW,20.7,-,N/A,,Partly Cloudy,220,2013-11-08 02:53:00
7:53 PM,45.0,33.1,63,29.94,10.0,SW,12.7,-,N/A,,Clear,230,2013-11-08 03:53:00
8:53 PM,46.0,32.0,58,29.96,10.0,SW,11.5,-,N/A,,Clear,220,2013-11-08 04:53:00
9:53 PM,48.0,32.0,54,29.97,10.0,SW,17.3,24.2,N/A,,Mostly Cloudy,230,2013-11-08 05:53:00
10:53 PM,48.0,33.1,56,29.99,10.0,SW,13.8,23.0,N/A,,Partly Cloudy,230,2013-11-08 06:53:00
11:53 PM,46.9,33.1,59,30.00,10.0,SW,11.5,-,N/A,,Partly Cloudy,230,2013-11-08 07:53:00